Back to catalog

CZ-4 DEB

AliveSSO
NORAD 20913·DEBRIS·🇨🇳 China

Launched Sep 3, 1990 from Taiyuan Satellite Launch Center

Loading…

Next Passes (next 24 hours)

TLE

FreshSource: Space-Track

Epoch: Sep 13, 2026, 21:50 UTC

1 20913U 90081BW  26256.90997127  .00000374  00000-0  21505-3 0  9998
2 20913  98.8868 242.3458 0099389 102.4415 287.8822 14.12621332844140

Track CZ-4 DEB in real time with AllMySat

Download on the App Store